GW4608 Weather Reports


time (UTC)temp
F
wind
direction
speed
knots
gust
knots
rain 1hr
in
rain 24hr
in
rain mn
in
humidity
%
barometer
mb
20260502221106 52 284 1.7 5.2 0.00 0.00 0.00 43 1014.3
20260502220603 53 336 3.5 6.1 0.00 0.00 0.00 44 1014.2
20260502220058 53 285 3.5 5.2 0.00 0.00 0.00 42 1014.2
20260502215556 53 7 3.5 5.2 0.00 0.00 0.00 44 1013.9
20260502215053 54 354 4.3 8.7 0.00 0.00 0.00 42 1014.1
20260502214549 55 264 5.2 7.0 0.00 0.00 0.00 41 1014.0
20260502214047 53 288 3.5 7.0 0.00 0.00 0.00 43 1014.0
20260502213544 53 2 3.5 5.2 0.00 0.00 0.00 44 1013.8
20260502213042 53 339 5.2 6.1 0.00 0.00 0.00 44 1013.8
20260502212540 53 20 5.2 6.1 0.00 0.00 0.00 45 1013.9
20260502212038 53 296 3.5 5.2 0.00 0.00 0.00 44 1013.9
20260502211533 53 18 6.1 7.0 0.00 0.00 0.00 42 1013.9
20260502211030 53 18 6.1 7.0 0.00 0.00 0.00 42 1014.0
20260502210527 53 327 7.8 9.6 0.00 0.00 0.00 42 1013.9
20260502210024 54 350 6.1 7.8 0.00 0.00 0.00 43 1013.8
20260502205520 54 352 6.1 7.0 0.00 0.00 0.00 41 1013.8
20260502205017 54 319 6.1 7.0 0.00 0.00 0.00 38 1013.8
20260502204515 54 294 5.2 7.0 0.00 0.00 0.00 39 1013.7
20260502204013 54 359 4.3 6.1 0.00 0.00 0.00 42 1013.8
20260502203509 54 329 3.5 5.2 0.00 0.00 0.00 40 1013.8
20260502203006 54 344 3.5 3.5 0.00 0.00 0.00 39 1013.9
20260502202502 54 328 7.8 8.7 0.00 0.00 0.00 39 1013.8
20260502202001 54 301 5.2 7.0 0.00 0.00 0.00 38 1013.8
20260502201456 54 299 1.7 7.0 0.00 0.00 0.00 40 1013.8
20260502200953 54 34 5.2 7.0 0.00 0.00 0.00 39 1013.9
20260502200449 54 329 6.1 7.0 0.00 0.00 0.00 40 1013.9
20260502195947 54 289 3.5 8.7 0.00 0.00 0.00 38 1014.0
20260502195444 56 310 4.3 5.2 0.00 0.00 0.00 37 1013.9
20260502194940 57 246 1.7 1.7 0.00 0.00 0.00 35 1013.9
20260502194437 56 315 3.5 3.5 0.00 0.00 0.00 46 1014.1
20260502193933 54 347 0.9 0.9 0.00 0.00 0.00 39 1014.2
20260502193430 55 340 3.5 7.0 0.00 0.00 0.00 45 1014.2
20260502192925 54 334 7.8 8.7 0.00 0.00 0.00 41 1014.2
20260502192422 54 353 1.7 1.7 0.00 0.00 0.00 44 1014.6
20260502191919 53 295 5.2 6.1 0.00 0.00 0.00 42 1014.4
20260502191417 53 299 4.3 7.0 0.00 0.00 0.00 40 1014.7
20260502190914 53 324 2.6 6.1 0.00 0.00 0.00 42 1014.8
20260502190411 53 288 3.5 3.5 0.00 0.00 0.00 43 1014.8
20260502185908 54 337 1.7 5.2 0.00 0.00 0.00 41 1015.0
20260502185403 53 0 3.5 6.1 0.00 0.00 0.00 39 1014.8
20260502184900 53 330 2.6 5.2 0.00 0.00 0.00 40 1014.9
20260502184355 54 283 3.5 7.8 0.00 0.00 0.00 43 1015.2
20260502183853 55 307 2.6 3.5 0.00 0.00 0.00 46 1015.1
20260502183348 53 307 5.2 7.8 0.00 0.00 0.00 43 1015.2
20260502182843 53 319 6.1 11.3 0.00 0.00 0.00 44 1015.1
20260502182339 54 334 5.2 9.6 0.00 0.00 0.00 40 1015.2
20260502181836 53 328 1.7 2.6 0.00 0.00 0.00 42 1015.2
20260502181335 53 349 3.5 6.1 0.00 0.00 0.00 41 1015.2
20260502180833 54 341 1.7 3.5 0.00 0.00 0.00 44 1015.3
20260502180330 55 321 1.7 3.5 0.00 0.00 0.00 40 1015.4
20260502170248 52 303 5.2 7.0 0.00 0.00 0.00 48 1015.7
20260502164236 52 4 2.6 6.1 0.00 0.00 0.00 49 1015.8
20260502163731 52 339 5.2 7.8 0.00 0.00 0.00 49 1015.9
20260502163228 52 327 1.7 6.1 0.00 0.00 0.00 46 1015.6
20260502162725 52 339 5.2 6.1 0.00 0.00 0.00 48 1015.9
20260502162222 51 288 2.6 8.7 0.00 0.00 0.00 47 1016.1
20260502161719 51 241 0.9 2.6 0.00 0.00 0.00 46 1015.9
20260502161215 52 332 5.2 7.8 0.00 0.00 0.00 46 1016.1
20260502160714 52 274 5.2 7.0 0.00 0.00 0.00 47 1016.2
20260502160213 52 353 3.5 5.2 0.00 0.00 0.00 45 1016.1
20260502152132 50 293 0.0 1.7 0.00 0.00 0.00 53 1016.3
20260502151630 50 342 3.5 5.2 0.00 0.00 0.00 55 1016.3
20260502151127 51 326 1.7 2.6 0.00 0.00 0.00 56 1016.3
20260502150624 50 293 4.3 5.2 0.00 0.00 0.00 57 1016.2
20260502150120 50 333 5.2 9.6 0.00 0.00 0.00 53 1016.2
20260502130509 46 26 0.9 5.2 0.00 0.00 0.00 69 1016.5
20260502123452 46 326 3.5 6.1 0.00 0.00 0.00 70 1016.3
20260502122949 46 318 3.5 7.8 0.00 0.00 0.00 69 1016.6
20260502122445 45 273 3.5 5.2 0.00 0.00 0.00 71 1016.5
20260502121943 44 25 0.9 2.6 0.00 0.00 0.00 70 1016.7
20260502121440 44 10 0.0 0.0 0.00 0.00 0.00 71 1016.8
20260502120938 44 10 1.7 1.7 0.00 0.00 0.00 70 1016.7
20260502120433 44 13 0.0 0.9 0.00 0.00 0.00 72 1016.8
20260502115931 43 4 0.0 0.0 0.00 0.00 0.00 75 1016.8
20260502115428 43 3 0.0 0.0 0.00 0.00 0.00 74 1016.7
20260502114924 42 3 0.0 0.0 0.00 0.00 0.00 78 1016.7
20260502114421 43 3 0.0 0.9 0.00 0.00 0.00 77 1016.6
20260502113918 42 3 0.9 0.9 0.00 0.00 0.00 74 1016.7
20260502113416 41 302 1.7 2.6 0.00 0.00 0.00 77 1016.8
20260502112915 42 311 0.0 0.9 0.00 0.00 0.00 79 1016.8
20260502112411 41 353 0.0 1.7 0.00 0.00 0.00 78 1016.9
20260502111909 42 357 1.7 1.7 0.00 0.00 0.00 76 1016.9
20260502111406 41 321 0.9 1.7 0.00 0.00 0.00 80 1016.9
20260502110903 41 337 0.9 3.5 0.00 0.00 0.00 76 1016.8
20260502110401 39 317 0.9 1.7 0.00 0.00 0.00 82 1016.9
20260502105858 39 332 1.7 1.7 0.00 0.00 0.00 81 1016.7
20260502105355 40 293 1.7 2.6 0.00 0.00 0.00 79 1017.0
20260502104853 40 326 0.9 1.7 0.00 0.00 0.00 80 1016.8
20260502104350 39 14 1.7 1.7 0.00 0.00 0.00 82 1016.8
20260502103847 40 328 2.6 2.6 0.00 0.00 0.00 74 1016.9
20260502103345 40 328 1.7 2.6 0.00 0.00 0.00 81 1017.0
20260502102841 40 349 3.5 6.1 0.00 0.00 0.00 78 1016.9
20260502102338 39 234 0.0 2.6 0.00 0.00 0.00 78 1016.9
20260502101835 40 315 2.6 2.6 0.00 0.00 0.00 78 1017.1
20260502101333 40 295 1.7 1.7 0.00 0.00 0.00 77 1017.0
20260502100831 40 293 1.7 2.6 0.00 0.00 0.00 78 1017.1
20260502100330 38 322 1.7 2.6 0.00 0.00 0.00 80 1016.9
20260502091304 40 291 0.9 2.6 0.00 0.00 0.00 79 1016.9
20260502090802 41 287 1.7 2.6 0.00 0.00 0.00 75 1016.7
20260502090258 40 289 0.0 0.0 0.00 0.00 0.00 77 1016.8
20260502071159 44 321 0.0 0.9 0.00 0.00 0.00 71 1016.4
20260502070657 44 345 2.6 3.5 0.00 0.00 0.00 70 1016.3
20260502070154 44 323 1.7 3.5 0.00 0.00 0.00 71 1016.4
20260502065653 44 329 1.7 2.6 0.00 0.00 0.00 71 1016.4
20260502065150 45 336 4.3 5.2 0.00 0.00 0.00 70 1016.3
20260502064649 45 336 3.5 9.6 0.00 0.00 0.00 69 1016.3
20260502064145 45 291 4.3 7.8 0.00 0.00 0.00 70 1016.3
20260502063643 45 6 2.6 3.5 0.00 0.00 0.00 71 1016.3
20260502063141 45 6 1.7 3.5 0.00 0.00 0.00 71 1016.3
20260502062637 45 334 0.9 3.5 0.00 0.00 0.00 71 1016.0
20260502062135 45 319 3.5 3.5 0.00 0.00 0.00 70 1016.1
20260502061633 45 322 0.9 1.7 0.00 0.00 0.00 70 1016.1
20260502061131 46 316 1.7 3.5 0.00 0.00 0.00 69 1016.3
20260502060630 46 324 2.6 7.0 0.00 0.00 0.00 69 1016.1
20260502060127 46 348 2.6 5.2 0.00 0.00 0.00 69 1015.9
20260502055625 46 342 2.6 3.5 0.00 0.00 0.00 69 1016.2
20260502055123 46 355 7.8 9.6 0.00 0.00 0.00 68 1016.2
20260502054622 46 4 2.6 5.2 0.00 0.00 0.00 69 1016.3
20260502054119 46 306 7.0 11.3 0.00 0.00 0.00 67 1016.3
20260502053616 47 314 5.2 9.6 0.00 0.00 0.00 67 1016.2
20260502053113 47 280 5.2 9.6 0.00 0.00 0.00 67 1016.3
20260502052612 47 336 4.3 9.6 0.00 0.00 0.00 68 1016.5
20260502052110 47 354 5.2 12.2 0.00 0.00 0.00 68 1016.4
20260502051608 47 352 4.3 11.3 0.00 0.00 0.00 68 1016.1
20260502051105 47 349 6.1 7.8 0.00 0.00 0.00 67 1016.1
20260502050601 48 285 6.1 8.7 0.00 0.00 0.00 67 1016.3
20260502050058 48 322 3.5 7.0 0.00 0.00 0.00 67 1016.3
20260502045554 48 309 5.2 8.7 0.00 0.00 0.00 68 1016.2
20260502045052 48 321 2.6 7.0 0.00 0.00 0.00 69 1016.2
20260502044548 48 337 4.3 7.8 0.00 0.00 0.00 68 1015.8
20260502044045 49 327 8.7 13.0 0.00 0.00 0.00 67 1015.8
20260502043543 49 338 9.6 11.3 0.00 0.00 0.00 66 1015.9
20260502043039 49 300 5.2 7.8 0.00 0.00 0.00 69 1015.9
20260502042539 49 322 6.1 9.6 0.00 0.00 0.00 69 1015.9
20260502042037 49 358 1.7 3.5 0.00 0.00 0.00 73 1015.8
20260502041534 49 294 1.7 2.6 0.00 0.00 0.00 73 1015.8
20260502041031 49 349 1.7 3.5 0.00 0.00 0.00 73 1015.9
20260502040527 50 335 0.9 1.7 0.00 0.00 0.00 72 1015.5
20260502040025 51 358 3.5 6.1 0.00 0.00 0.00 70 1015.3
20260502035520 50 9 1.7 6.1 0.00 0.00 0.00 72 1015.5
20260502035018 51 341 2.6 5.2 0.00 0.00 0.00 71 1015.4
20260502034516 51 5 2.6 2.6 0.00 0.00 0.00 71 1015.3
20260502034014 51 303 0.9 1.7 0.00 0.00 0.00 70 1015.4
20260502033512 51 264 0.9 3.5 0.00 0.00 0.00 69 1015.4
20260502033009 51 356 4.3 6.1 0.00 0.00 0.00 69 1015.5
20260502032505 51 285 2.6 2.6 0.00 0.00 0.00 69 1015.4
20260502032002 51 331 2.6 6.1 0.00 0.00 0.00 68 1015.4
20260502031500 51 308 1.7 2.6 0.00 0.00 0.00 68 1015.3
20260502030958 51 328 3.5 6.1 0.00 0.00 0.00 68 1015.3
20260502030456 51 275 1.7 2.6 0.00 0.00 0.00 68 1015.2
20260502025953 51 334 3.5 5.2 0.00 0.00 0.00 67 1015.0
20260502025450 51 214 1.7 3.5 0.00 0.00 0.00 66 1015.0
20260502024948 51 292 0.9 1.7 0.00 0.00 0.00 68 1015.0
20260502024446 52 317 0.9 2.6 0.00 0.00 0.00 65 1015.1
20260502023944 52 281 3.5 5.2 0.00 0.00 0.00 65 1015.2
20260502023441 52 320 1.7 2.6 0.00 0.00 0.00 65 1015.2
20260502022939 52 267 0.9 2.6 0.00 0.00 0.00 64 1015.1
20260502022435 52 269 1.7 5.2 0.00 0.00 0.00 64 1015.2
20260502021932 52 295 2.6 2.6 0.00 0.00 0.00 65 1015.1
20260502021429 52 330 3.5 5.2 0.00 0.00 0.00 64 1014.8
20260502020926 52 265 1.7 2.6 0.00 0.00 0.00 63 1014.9
20260502020425 52 150 2.6 3.5 0.00 0.00 0.00 63 1015.0
20260502015921 52 284 3.5 3.5 0.00 0.00 0.00 64 1015.0
20260502015419 52 275 4.3 6.1 0.00 0.00 0.00 63 1014.8
20260502014915 52 248 1.7 3.5 0.00 0.00 0.00 63 1014.9
20260502014412 52 284 0.9 5.2 0.00 0.00 0.00 63 1015.0
20260502013908 52 303 3.5 6.1 0.00 0.00 0.00 63 1014.9
20260502013404 52 317 5.2 7.8 0.00 0.00 0.00 64 1014.7
20260502012901 53 263 3.5 6.1 0.00 0.00 0.00 64 1015.0
20260502012359 53 302 2.6 2.6 0.00 0.00 0.00 66 1014.8
20260502011856 53 261 1.7 6.1 0.00 0.00 0.00 65 1014.8
20260502011352 53 326 1.7 3.5 0.00 0.00 0.00 68 1014.7
20260502010849 53 350 5.2 6.1 0.00 0.00 0.00 65 1014.6
20260502010346 54 339 2.6 5.2 0.00 0.00 0.00 66 1014.4
20260502005842 54 348 5.2 6.1 0.00 0.00 0.00 64 1014.3
20260502005340 54 344 3.5 6.1 0.00 0.00 0.00 63 1014.0
20260502004837 54 329 2.6 2.6 0.00 0.00 0.00 64 1013.7
20260502004333 54 345 3.5 5.2 0.00 0.00 0.00 62 1013.7
20260502003831 55 308 4.3 7.0 0.00 0.00 0.00 62 1013.5
20260502003328 54 328 3.5 7.8 0.00 0.00 0.00 61 1013.2
20260502002824 54 355 3.5 3.5 0.00 0.00 0.00 61 1013.0
20260502002322 55 354 4.3 7.0 0.00 0.00 0.00 60 1013.0
20260502001819 55 357 2.6 2.6 0.00 0.00 0.00 60 1012.5
20260502001317 55 7 5.2 7.0 0.00 0.00 0.00 58 1012.6
20260502000814 55 355 2.6 6.1 0.00 0.00 0.00 58 1012.8
20260502000312 56 48 4.3 6.1 0.00 0.00 0.00 55 1012.3
20260501235808 57 318 7.0 11.3 0.00 0.00 0.00 51 1012.2
20260501235305 58 304 3.5 5.2 0.00 0.00 0.00 50 1012.3
20260501234759 58 18 7.0 9.6 0.00 0.00 0.00 50 1012.3
20260501234257 58 314 3.5 9.6 0.00 0.00 0.00 50 1012.0
20260501233755 58 346 6.1 13.9 0.00 0.00 0.00 47 1011.6
20260501233252 59 16 1.7 6.1 0.00 0.00 0.00 48 1011.4
20260501232747 60 16 5.2 9.6 0.00 0.00 0.00 45 1011.3
20260501232245 60 287 9.6 13.9 0.00 0.00 0.00 42 1011.7
20260501231742 61 299 3.5 5.2 0.00 0.00 0.00 41 1011.3
20260501231240 62 272 5.2 8.7 0.00 0.00 0.00 38 1011.0
20260501230738 63 325 2.6 6.1 0.00 0.00 0.00 39 1011.2
20260501230237 63 332 2.6 6.1 0.00 0.00 0.00 39 1010.7
20260501225734 63 290 2.6 7.0 0.00 0.00 0.00 40 1010.7
20260501225231 64 254 0.9 1.7 0.00 0.00 0.00 46 1010.5
20260501224727 65 296 0.0 0.9 0.00 0.00 0.00 39 1010.6
20260501224225 65 14 1.7 2.6 0.00 0.00 0.00 40 1010.8
20260501223721 64 271 0.0 0.9 0.00 0.00 0.00 41 1010.8
20260501223218 62 356 0.9 1.7 0.00 0.00 0.00 57 1010.7
20260501222714 63 200 0.0 0.9 0.00 0.00 0.00 42 1010.5
20260501222211 62 281 0.0 0.0 0.00 0.00 0.00 52 1010.4
20260501221707 61 281 0.0 0.9 0.00 0.00 0.00 56 1010.6
20260501221204 62 321 0.9 0.9 0.00 0.00 0.00 43 1010.7